Flag for Switzerland Weather past 2 weeks in Biel, Switzerland

Now
51 °F

Cool.


Feels Like: 51 °F
Forecast: 40 / 71 °F
Wind: 2 mph from Northeast

Location: Grenchen

Current Time: Aug 21, 2014 at 8:52:13 AM

Latest Report: Aug 21, 2014 at 8:00 AM


Visibility: N/A

Pressure: 30.11 "Hg

Humidity: 94%

Dew point: 49 °F

Location of BielLocation

Historic Weather in Biel — Graph

°F

Biel temperature yesterday

Maximum temperature yesterday: 67 °F (at 3:00 PM)
Minimum temperature yesterday: 49 °F (at 6:00 AM)
Average temperature yesterday: 60 °F

Past Weeks' High & Low Weather Summary

 TemperatureHumidityPressure
High80 °F (Aug 8, 5:00 PM)100% (Aug 17, 6:00 AM)30.24 "Hg (Aug 17, 6:00 AM)
Low47 °F (Aug 17, 7:00 AM)42% (Aug 18, 4:00 PM)29.69 "Hg (Aug 13, 9:00 AM)
Average63 °F77%29.98 "Hg
* Reported Aug 6 7:00 AM — Aug 21 7:00 AM, Biel, Weather by CustomWeather, © 2014

Note: Actual official high and low records may vary slightly from our data, if they occured in-between our weather recording intervals... More about our weather records

Advertising

Biel weather history for previous 24 hours

 ConditionsComfort  
Time TempWeatherWind HumidityBarometerVisibility
7:00 AM
Aug 21
49 °FCool.3 mph95%30.11 "HgN/A
6:00 AM51 °FCool.2 mph94%30.10 "HgN/A
5:00 AM51 °FCool.3 mph92%30.11 "HgN/A
4:00 AM53 °FCool.1 mph93%30.10 "HgN/A
3:00 AM53 °FCool.1 mph90%30.10 "HgN/A
2:00 AM55 °FCool.1 mph86%30.09 "HgN/A
1:00 AM56 °FCool.No wind84%30.09 "HgN/A
12:00 AM58 °FCool.1 mph75%30.06 "HgN/A
11:00 PM
Aug 20
61 °FCool.5 mph62%30.05 "HgN/A
10:00 PM62 °FRefreshingly cool.7 mph59%30.03 "HgN/A
9:00 PM62 °FMild.3 mph56%30.00 "HgN/A
8:00 PM63 °FMild.2 mph58%29.98 "HgN/A
7:00 PM65 °FMild.5 mph49%29.98 "HgN/A
6:00 PM65 °FMild.2 mph47%29.98 "HgN/A
5:00 PM66 °FMild.6 mph48%29.98 "HgN/A
4:00 PM65 °FMild.5 mph51%29.98 "HgN/A
3:00 PM67 °FMild.2 mph47%29.98 "HgN/A
2:00 PM66 °FMild.3 mph49%29.99 "HgN/A
1:00 PM65 °FMild.3 mph48%30.00 "HgN/A
12:00 PM64 °FMild.2 mph54%30.01 "HgN/A
11:00 AM62 °FCool.3 mph62%30.02 "HgN/A
10:00 AM60 °FCool.3 mph73%30.03 "HgN/A
9:00 AM55 °FCool.3 mph85%30.05 "HgN/A
8:00 AM51 °FCool.2 mph92%30.06 "HgN/A
Weather by CustomWeather, © 2014

See weather overviewHow to use our weather pages